Simultaneous Nadir Overpasses (SNOs) Predictions

Prediction of SNOs between NOAA-15 and METOP-C Satellite Orbit:

Table of predicted SNOs for the next 14.0 days since TLE Epoch: 10/18/2023
Index Date (NOAA-15) Time (NOAA-15) Lat,Lon (NOAA-15) SZA (NOAA-15 ) Date (METOP-C) Time (METOP-C) Lat,Lon (METOP-C) SZA (METOP-C ) Distance(km) Time Diff (sec)
1 10/28/2023 01:38:42 -81.07, 13.81 83.70 10/28/2023 01:37:30 -81.07, 13.96 83.72 2.64 72
2 10/28/2023 02:29:11 81.07,-178.80 96.31 10/28/2023 02:28:10 81.06,-178.87 96.27 1.60 61
3 10/28/2023 03:19:42 -81.06, -11.23 83.67 10/28/2023 03:18:51 -81.08, -11.16 83.67 2.03 51
4 10/28/2023 04:10:11 81.06, 156.17 96.35 10/28/2023 04:09:31 81.07, 156.01 96.33 3.06 40
5 10/28/2023 05:00:43 -81.07, -36.63 83.65 10/28/2023 05:00:13 -81.07, -36.65 83.67 0.49 30
6 10/28/2023 05:51:12 81.07, 130.77 96.37 10/28/2023 05:50:52 81.08, 130.89 96.38 2.32 20
7 10/28/2023 06:41:44 -81.07, -62.03 83.64 10/28/2023 06:41:35 -81.06, -62.15 83.66 2.26 9
8 10/28/2023 07:32:13 81.07, 105.37 96.38 10/28/2023 07:32:14 81.07, 105.39 96.38 0.32 1
9 10/28/2023 08:22:45 -81.08, -87.44 83.63 10/28/2023 08:22:56 -81.07, -87.27 83.61 3.08 11
10 10/28/2023 09:13:14 81.08, 79.97 96.39 10/28/2023 09:13:36 81.07, 79.90 96.39 2.03 22
11 10/28/2023 10:03:45 -81.07,-112.47 83.59 10/28/2023 10:04:17 -81.08,-112.39 83.56 1.76 32
12 10/28/2023 10:54:14 81.07, 54.94 96.43 10/28/2023 10:54:57 81.07, 54.78 96.44 2.97 43
13 10/28/2023 11:44:46 -81.08,-137.88 83.57 10/28/2023 11:45:39 -81.08,-137.88 83.55 0.39 53
14 10/28/2023 12:35:15 81.08, 29.55 96.45 10/28/2023 12:36:18 81.08, 29.65 96.49 1.99 63



Historial Predications of SNOs between NOAA-15 and METOP-C
